Sea Crest — VG3583 — position and weather

sailwx.info

Track history (hours):
 
Tides and Currents Weather Stations Pressure Air Temp Water Temp Dewpoint Dewpoint Depression Visibility Wind Speed Wind Dir Waves Ship Positions

Sea Crest

Last reported at 2017-Oct-17 19:48 UTC. Time now 2017-Oct-18 22:34 UTC.
Position N 49°17' W 123°06'.

Length 26 m; draft 3 m.

Type: Fishing. MMSI: 316005669.

Date/timePositionNaut miles runAvg speedWind from/ knotsBaromVisibWave heightAir tempDewpointWater temp
2017-Oct-17 19:48N 49°17' W 123°06'0 0.0
2017-Oct-17 19:30N 49°17' W 123°06'0 0.0
2017-Oct-17 19:01N 49°17' W 123°06'0 0.0
2017-Oct-17 18:30N 49°17' W 123°06'0 0.0
2017-Oct-17 18:01N 49°17' W 123°06'0 0.0
2017-Oct-17 17:31N 49°17' W 123°06'0 0.0
2017-Oct-17 17:00N 49°17' W 123°06'0 0.0
2017-Oct-17 16:30N 49°17' W 123°06'0 0.0
2017-Oct-17 16:00N 49°17' W 123°06'  
2017-Oct-11 17:57N 49°17' W 123°06'0 0.1
2017-Oct-11 17:30N 49°17' W 123°06'0 0.0
2017-Oct-11 17:00N 49°17' W 123°06'0 0.0
2017-Oct-11 00:00N 49°17' W 123°06'3 6.9
2017-Oct-10 23:30N 49°19' W 123°10'5 9.3
2017-Oct-10 23:00N 49°20' W 123°17'5 9.3
2017-Oct-10 22:30N 49°19' W 123°24'5 9.5
2017-Oct-10 22:00N 49°19' W 123°32'5 9.2
2017-Oct-10 21:30N 49°19' W 123°39'5 9.1
2017-Oct-10 21:00N 49°19' W 123°46'4 7.2
2017-Oct-10 20:30N 49°19' W 123°51'3 4.9
2017-Oct-10 19:59N 49°18' W 123°55'3 7.3
2017-Oct-10 19:30N 49°14' W 123°56'2 3.8
2017-Oct-10 19:00N 49°13' W 123°57'0 0.0
2017-Oct-10 18:28N 49°13' W 123°57'0 0.0
2017-Oct-10 17:53N 49°13' W 123°57'0 0.0
2017-Oct-10 17:29N 49°13' W 123°57'0 0.0
2017-Oct-10 17:00N 49°13' W 123°57'0 0.0
2017-Oct-10 16:30N 49°13' W 123°57'0 0.0
2017-Oct-10 16:00N 49°13' W 123°57'0 0.0
2017-Oct-10 15:30N 49°13' W 123°57'0 0.2
2017-Oct-10 15:00N 49°13' W 123°57'3 2.6
2017-Oct-10 14:00N 49°10' W 123°56'0 0.0
2017-Oct-10 13:30N 49°10' W 123°56'0 0.0
2017-Oct-10 13:00N 49°10' W 123°56'0 0.0
2017-Oct-10 12:30N 49°10' W 123°56'0 0.0
2017-Oct-10 11:42N 49°10' W 123°56'0 0.0
2017-Oct-10 11:30N 49°10' W 123°56'0 0.0
2017-Oct-10 10:17N 49°10' W 123°56'0 0.0
2017-Oct-10 10:00N 49°10' W 123°56'0 0.0
2017-Oct-10 09:30N 49°10' W 123°56'0 0.0
2017-Oct-10 09:00N 49°10' W 123°56'0 0.0
2017-Oct-10 08:30N 49°10' W 123°56'0 0.0
2017-Oct-10 08:00N 49°10' W 123°56'0 0.0
2017-Oct-10 07:29N 49°10' W 123°56'0 0.0
2017-Oct-10 07:00N 49°10' W 123°56'0 0.0
2017-Oct-10 06:25N 49°10' W 123°56'0 0.0
2017-Oct-10 05:54N 49°10' W 123°56'0 0.0
2017-Oct-10 05:29N 49°10' W 123°56'0 0.0
2017-Oct-10 04:55N 49°10' W 123°56'0 0.0
2017-Oct-10 04:08N 49°10' W 123°56'0 0.0
2017-Oct-10 04:00N 49°10' W 123°56'0 0.0
2017-Oct-10 03:12N 49°10' W 123°56'0 0.0
2017-Oct-10 02:59N 49°10' W 123°56'0 0.0
2017-Oct-10 02:28N 49°10' W 123°56'0 0.0
2017-Oct-10 00:45N 49°10' W 123°56'0 0.0
2017-Oct-10 00:28N 49°10' W 123°56'0 0.0
2017-Oct-09 23:57N 49°10' W 123°56'0 0.0
2017-Oct-09 23:30N 49°10' W 123°56'0 0.0
2017-Oct-09 22:33N 49°10' W 123°56'0 0.0
2017-Oct-09 22:16N 49°10' W 123°56'0 0.0
2017-Oct-09 22:00N 49°10' W 123°56'0 0.0
2017-Oct-09 21:30N 49°10' W 123°56'0 0.0
2017-Oct-09 21:00N 49°10' W 123°56'0 0.0
2017-Oct-09 20:27N 49°10' W 123°56'0 0.2
2017-Oct-09 20:00N 49°10' W 123°56'0 0.0
2017-Oct-09 19:30N 49°10' W 123°56'0 0.3
2017-Oct-09 19:00N 49°10' W 123°56'2 3.1
2017-Oct-09 18:27N 49°12' W 123°55'4 8.9
2017-Oct-09 18:00N 49°15' W 123°58'2 3.3
2017-Oct-09 17:30N 49°17' W 123°60'3 7.0
2017-Oct-09 17:00N 49°18' W 124°04'4 8.7
2017-Oct-09 16:30N 49°20' W 124°10'4 8.7
2017-Oct-09 16:00N 49°23' W 124°16'4 8.7
2017-Oct-09 15:30N 49°25' W 124°21'4 8.5
2017-Oct-09 15:00N 49°28' W 124°26'4 8.7
2017-Oct-09 14:30N 49°31' W 124°31'4 8.6
2017-Oct-09 14:00N 49°34' W 124°35'4 8.5
2017-Oct-09 13:30N 49°37' W 124°40'4 8.4
2017-Oct-09 13:00N 49°41' W 124°44'4 8.6
2017-Oct-09 12:30N 49°44' W 124°48'4 8.6
2017-Oct-09 12:00N 49°47' W 124°53'4 8.6
2017-Oct-09 11:30N 49°50' W 124°57'4 8.5
2017-Oct-09 11:00N 49°53' W 125°02'4 8.5
2017-Oct-09 10:30N 49°56' W 125°07'5 9.5
2017-Oct-09 09:59N 49°59' W 125°12'510.6
2017-Oct-09 09:30N 50°04' W 125°15'4 8.3
2017-Oct-09 09:00N 50°07' W 125°20'3 6.7
2017-Oct-09 08:30N 50°10' W 125°22'3 5.2
2017-Oct-09 07:58N 50°13' W 125°23'2 4.1
2017-Oct-09 07:30N 50°15' W 125°23'2 4.1
2017-Oct-09 07:00N 50°17' W 125°24'  
Track history (hours):
 
Tides and Currents Weather Stations Pressure Air Temp Water Temp Dewpoint Dewpoint Depression Visibility Wind Speed Wind Dir Waves Ship Positions

Sea Crest

Last reported at 2017-Oct-17 19:48 UTC. Time now 2017-Oct-18 22:34 UTC.
Position N 49°17' W 123°06'.

Length 26 m; draft 3 m.

Type: Fishing. MMSI: 316005669.

Date/timePositionNaut miles runAvg speedWind from/ knotsBaromVisibWave heightAir tempDewpointWater temp
2017-Oct-17 19:48N 49°17' W 123°06'0 0.0
2017-Oct-17 19:30N 49°17' W 123°06'0 0.0
2017-Oct-17 19:01N 49°17' W 123°06'0 0.0
2017-Oct-17 18:30N 49°17' W 123°06'0 0.0
2017-Oct-17 18:01N 49°17' W 123°06'0 0.0
2017-Oct-17 17:31N 49°17' W 123°06'0 0.0
2017-Oct-17 17:00N 49°17' W 123°06'0 0.0
2017-Oct-17 16:30N 49°17' W 123°06'0 0.0
2017-Oct-17 16:00N 49°17' W 123°06'  
2017-Oct-11 17:57N 49°17' W 123°06'0 0.1
2017-Oct-11 17:30N 49°17' W 123°06'0 0.0
2017-Oct-11 17:00N 49°17' W 123°06'0 0.0
2017-Oct-11 00:00N 49°17' W 123°06'3 6.9
2017-Oct-10 23:30N 49°19' W 123°10'5 9.3
2017-Oct-10 23:00N 49°20' W 123°17'5 9.3
2017-Oct-10 22:30N 49°19' W 123°24'5 9.5
2017-Oct-10 22:00N 49°19' W 123°32'5 9.2
2017-Oct-10 21:30N 49°19' W 123°39'5 9.1
2017-Oct-10 21:00N 49°19' W 123°46'4 7.2
2017-Oct-10 20:30N 49°19' W 123°51'3 4.9
2017-Oct-10 19:59N 49°18' W 123°55'3 7.3
2017-Oct-10 19:30N 49°14' W 123°56'2 3.8
2017-Oct-10 19:00N 49°13' W 123°57'0 0.0
2017-Oct-10 18:28N 49°13' W 123°57'0 0.0
2017-Oct-10 17:53N 49°13' W 123°57'0 0.0
2017-Oct-10 17:29N 49°13' W 123°57'0 0.0
2017-Oct-10 17:00N 49°13' W 123°57'0 0.0
2017-Oct-10 16:30N 49°13' W 123°57'0 0.0
2017-Oct-10 16:00N 49°13' W 123°57'0 0.0
2017-Oct-10 15:30N 49°13' W 123°57'0 0.2
2017-Oct-10 15:00N 49°13' W 123°57'3 2.6
2017-Oct-10 14:00N 49°10' W 123°56'0 0.0
2017-Oct-10 13:30N 49°10' W 123°56'0 0.0
2017-Oct-10 13:00N 49°10' W 123°56'0 0.0
2017-Oct-10 12:30N 49°10' W 123°56'0 0.0
2017-Oct-10 11:42N 49°10' W 123°56'0 0.0
2017-Oct-10 11:30N 49°10' W 123°56'0 0.0
2017-Oct-10 10:17N 49°10' W 123°56'0 0.0
2017-Oct-10 10:00N 49°10' W 123°56'0 0.0
2017-Oct-10 09:30N 49°10' W 123°56'0 0.0
2017-Oct-10 09:00N 49°10' W 123°56'0 0.0
2017-Oct-10 08:30N 49°10' W 123°56'0 0.0
2017-Oct-10 08:00N 49°10' W 123°56'0 0.0
2017-Oct-10 07:29N 49°10' W 123°56'0 0.0
2017-Oct-10 07:00N 49°10' W 123°56'0 0.0
2017-Oct-10 06:25N 49°10' W 123°56'0 0.0
2017-Oct-10 05:54N 49°10' W 123°56'0 0.0
2017-Oct-10 05:29N 49°10' W 123°56'0 0.0
2017-Oct-10 04:55N 49°10' W 123°56'0 0.0
2017-Oct-10 04:08N 49°10' W 123°56'0 0.0
2017-Oct-10 04:00N 49°10' W 123°56'0 0.0
2017-Oct-10 03:12N 49°10' W 123°56'0 0.0
2017-Oct-10 02:59N 49°10' W 123°56'0 0.0
2017-Oct-10 02:28N 49°10' W 123°56'0 0.0
2017-Oct-10 00:45N 49°10' W 123°56'0 0.0
2017-Oct-10 00:28N 49°10' W 123°56'0 0.0
2017-Oct-09 23:57N 49°10' W 123°56'0 0.0
2017-Oct-09 23:30N 49°10' W 123°56'0 0.0
2017-Oct-09 22:33N 49°10' W 123°56'0 0.0
2017-Oct-09 22:16N 49°10' W 123°56'0 0.0
2017-Oct-09 22:00N 49°10' W 123°56'0 0.0
2017-Oct-09 21:30N 49°10' W 123°56'0 0.0
2017-Oct-09 21:00N 49°10' W 123°56'0 0.0
2017-Oct-09 20:27N 49°10' W 123°56'0 0.2
2017-Oct-09 20:00N 49°10' W 123°56'0 0.0
2017-Oct-09 19:30N 49°10' W 123°56'0 0.3
2017-Oct-09 19:00N 49°10' W 123°56'2 3.1
2017-Oct-09 18:27N 49°12' W 123°55'4 8.9
2017-Oct-09 18:00N 49°15' W 123°58'2 3.3
2017-Oct-09 17:30N 49°17' W 123°60'3 7.0
2017-Oct-09 17:00N 49°18' W 124°04'4 8.7
2017-Oct-09 16:30N 49°20' W 124°10'4 8.7
2017-Oct-09 16:00N 49°23' W 124°16'4 8.7
2017-Oct-09 15:30N 49°25' W 124°21'4 8.5
2017-Oct-09 15:00N 49°28' W 124°26'4 8.7
2017-Oct-09 14:30N 49°31' W 124°31'4 8.6
2017-Oct-09 14:00N 49°34' W 124°35'4 8.5
2017-Oct-09 13:30N 49°37' W 124°40'4 8.4
2017-Oct-09 13:00N 49°41' W 124°44'4 8.6
2017-Oct-09 12:30N 49°44' W 124°48'4 8.6
2017-Oct-09 12:00N 49°47' W 124°53'4 8.6
2017-Oct-09 11:30N 49°50' W 124°57'4 8.5
2017-Oct-09 11:00N 49°53' W 125°02'4 8.5
2017-Oct-09 10:30N 49°56' W 125°07'5 9.5
2017-Oct-09 09:59N 49°59' W 125°12'510.6
2017-Oct-09 09:30N 50°04' W 125°15'4 8.3
2017-Oct-09 09:00N 50°07' W 125°20'3 6.7
2017-Oct-09 08:30N 50°10' W 125°22'3 5.2
2017-Oct-09 07:58N 50°13' W 125°23'2 4.1
2017-Oct-09 07:30N 50°15' W 125°23'2 4.1
2017-Oct-09 07:00N 50°17' W 125°24'  

Dump ship's entire track history